Regional Weather Roundup
Issued by NWS

Home | Current Version | Previous Version | Text Only | Print | Product List | Glossary On
Versions: 1 2 3 4 5 6 7 8 9 10 11 12 13 14 15 16 17 18 19 20 21 22 23 24 25 26 27 28 29 30 31 32 33 34 35 36 37 38 39 40 41 42 43 44 45 46 47 48 49 50
000
ASUS43 KLMK 251702
RWRKY
KENTUCKY REGIONAL WEATHER ROUNDUP
NATIONAL WEATHER SERVICE LOUISVILLE KY
100 PM EDT WED MAY 25 2016

NOTE "FAIR" INDICATES FEW OR NO CLOUDS BELOW 12,000 FEET
WITH NO SIGNIFICANT WEATHER AND/OR OBSTRUCTIONS TO VISIBILITY.

KYZ001>023-026-027-061>063-070>075-251800-
WESTERN AND SOUTH CENTRAL KENTUCKY

CITY           SKY/WX    TMP DP  RH WIND       PRES   REMARKS
PADUCAH        CLOUDY    71  66  84 E7        30.09S
HENDERSON      CLOUDY    72  64  78 W9        30.11R
OWENSBORO      CLOUDY    83  67  58 SW9       30.12R
HOPKINSVILLE   PTSUNNY   78  67  67 S7        30.12R
BOWLING GREEN  CLOUDY    80  62  54 SW13      30.14F
GLASGOW        NOT AVBL
$$

KYZ024-025-028>034-038-045-046-053-251800-
NORTH CENTRAL KENTUCKY

CITY           SKY/WX    TMP DP  RH WIND       PRES   REMARKS
LOUISVILLE/SDF PTSUNNY   80  60  50 SW14G20   30.11S
LOUISVILLE/LOU PTSUNNY   79  62  56 SW9       30.12S
FORT KNOX      PTSUNNY   77  64  62 SW12      30.12R
$$

KYZ035>037-039>044-047>052-055>060-089>105-251800-
NORTHEAST KENTUCKY

CITY           SKY/WX    TMP DP  RH WIND       PRES   REMARKS
LEXINGTON      MOSUNNY   77  61  57 S12       30.16S
COVINGTON      CLOUDY    75  61  61 S12       30.13S
FRANKFORT      CLOUDY    78  61  55 S9        30.14S
$$

KYZ054-064>069-076>088-106>120-251800-
SOUTHEAST KENTUCKY

CITY           SKY/WX    TMP DP  RH WIND       PRES   REMARKS
JACKSON        MOSUNNY   82  59  45 MISG      30.20F
LONDON         SUNNY     80  58  46 SW10      30.20F
SOMERSET       NOT AVBL
MIDDLESBORO    MOSUNNY   78  58  50 S6        30.23S
MONTICELLO     CLOUDY    80  63  55 SW16G29   30.20S
$$





USA.gov is the U.S. government's official web portal to all federal, state and local government web resources and services.